GW5048 Weather Reports


time (UTC)temp
C
wind
direction
speed
KPH
gust
KPH
rain 1hr
cm
rain 24hr
cm
rain mn
cm
humidity
%
barometer
mb
20260906114351 16 118 0.0 0.0 0.00 0.00 0.00 99 956.4
20260906113846 16 118 0.0 0.0 0.00 0.00 0.00 99 956.5
20260906113345 16 118 0.0 0.0 0.00 0.00 0.00 99 956.4
20260906112841 16 118 0.0 0.0 0.00 0.00 0.00 99 956.1
20260906112337 16 118 0.0 0.0 0.00 0.00 0.00 99 956.1
20260906111832 16 118 0.0 0.0 0.00 0.00 0.00 99 956.2
20260906111331 16 118 0.0 0.0 0.00 0.00 0.00 99 955.9
20260906110826 16 117 0.0 0.0 0.00 0.00 0.00 99 956.1
20260906110322 16 117 0.0 0.0 0.00 0.00 0.00 99 956.0
20260906105821 16 117 0.0 0.0 0.00 0.00 0.00 99 955.9
20260906105317 16 117 0.0 0.0 0.00 0.00 0.00 99 956.0
20260906104813 16 117 0.0 0.0 0.00 0.00 0.00 99 955.9
20260906104311 16 118 0.0 0.0 0.00 0.00 0.00 99 955.7
20260906103810 16 118 0.0 0.0 0.00 0.00 0.00 99 955.6
20260906103309 16 118 0.0 0.0 0.00 0.00 0.00 99 955.6
20260906102805 16 118 0.0 0.0 0.00 0.00 0.00 99 955.6
20260906102306 16 118 0.0 0.0 0.00 0.00 0.00 99 955.5
20260906101759 16 87 0.0 0.0 0.00 0.00 0.00 99 955.3
20260906101254 16 87 0.0 0.0 0.00 0.00 0.00 99 955.6
20260906100749 16 87 0.0 0.0 0.00 0.00 0.00 99 955.6
20260906100248 16 87 0.0 0.0 0.00 0.00 0.00 99 955.3
20260906095744 16 87 0.0 0.0 0.00 0.00 0.00 99 955.4
20260906095239 16 87 0.0 0.0 0.00 0.00 0.00 99 955.4
20260906094738 16 88 0.0 0.0 0.00 0.00 0.00 99 955.3
20260906094234 16 88 0.0 0.0 0.00 0.00 0.00 99 955.4
20260906093730 16 87 0.0 0.0 0.00 0.00 0.00 99 955.4
20260906093225 16 87 0.0 0.0 0.00 0.00 0.00 99 955.2
20260906092721 16 86 0.0 0.0 0.00 0.00 0.00 99 955.2
20260906092220 16 123 0.0 0.0 0.00 0.00 0.00 99 955.4
20260906091717 16 124 0.0 0.0 0.00 0.00 0.00 99 955.2
20260906091213 16 123 0.0 0.0 0.00 0.00 0.00 99 955.1
20260906090708 16 123 0.0 0.0 0.00 0.00 0.00 99 955.0
20260906090208 16 123 0.0 0.0 0.00 0.00 0.00 99 955.1
20260906085707 16 123 0.0 0.0 0.00 0.00 0.00 99 955.0
20260906085206 16 123 0.0 0.0 0.00 0.00 0.00 99 955.0
20260906084701 16 123 0.0 0.0 0.00 0.00 0.00 99 955.2
20260906084154 16 123 0.0 0.0 0.00 0.00 0.00 99 955.2
20260906083649 16 123 0.0 0.0 0.00 0.00 0.00 99 955.1
20260906083144 16 123 0.0 0.0 0.00 0.00 0.00 99 955.1
20260906082640 16 123 0.0 0.0 0.00 0.00 0.00 99 955.0
20260906082135 16 123 0.0 0.0 0.00 0.00 0.00 99 955.2
20260906081631 16 123 0.0 0.0 0.00 0.00 0.00 99 955.2
20260906081126 16 123 0.0 0.0 0.00 0.00 0.00 99 955.2
20260906080623 16 123 0.0 0.0 0.00 0.00 0.00 99 955.2
20260906080119 16 124 0.0 0.0 0.00 0.00 0.00 99 955.3
20260906075618 16 124 0.0 0.0 0.00 0.00 0.00 99 955.3
20260906075113 16 124 0.0 0.0 0.00 0.00 0.00 99 955.1
20260906074608 16 123 0.0 0.0 0.00 0.00 0.00 99 955.1
20260906074107 16 123 0.0 0.0 0.00 0.00 0.00 99 955.0
20260906073601 16 123 0.0 0.0 0.00 0.00 0.00 99 955.3
20260906073052 16 123 0.0 0.0 0.00 0.00 0.00 99 955.2
20260906072546 16 123 0.0 0.0 0.00 0.00 0.00 99 955.1
20260906072042 16 123 0.0 0.0 0.00 0.00 0.00 99 955.1
20260906071538 16 123 0.0 0.0 0.00 0.00 0.00 99 955.0
20260906071033 17 123 0.0 0.0 0.00 0.00 0.00 99 955.0
20260906070531 16 123 0.0 0.0 0.00 0.00 0.00 99 955.0
20260906070026 17 123 0.0 0.0 0.00 0.00 0.00 99 955.1
20260906065525 17 123 0.0 0.0 0.00 0.00 0.00 99 955.5
20260906065021 17 155 0.0 0.0 0.00 0.00 0.00 99 955.1
20260906064517 17 156 0.0 0.0 0.00 0.00 0.00 99 955.3
20260906064016 17 156 0.0 0.0 0.00 0.00 0.00 99 955.4
20260906063512 17 156 0.0 0.0 0.00 0.00 0.00 99 955.3
20260906063008 17 156 0.0 0.0 0.00 0.00 0.00 99 955.5
20260906062457 17 156 0.0 0.0 0.00 0.00 0.00 99 955.6
20260906061952 17 156 0.0 0.0 0.00 0.00 0.00 99 955.3
20260906061448 17 156 0.0 0.0 0.00 0.00 0.00 99 955.3
20260906060947 17 120 0.0 0.0 0.00 0.00 0.00 99 955.5
20260906060444 17 121 0.0 0.0 0.00 0.00 0.00 99 955.6
20260906055940 17 121 0.0 0.0 0.00 0.00 0.00 99 955.9
20260906055436 17 121 0.0 0.0 0.00 0.00 0.00 99 955.6
20260906054931 17 120 0.0 0.0 0.00 0.00 0.00 99 955.6
20260906054426 17 120 0.0 0.0 0.00 0.00 0.00 99 955.6
20260906053922 17 120 0.0 0.0 0.00 0.00 0.00 99 955.6
20260906053418 17 120 0.0 0.0 0.00 0.00 0.00 99 955.7
20260906052913 17 120 0.0 0.0 0.00 0.00 0.00 99 955.7
20260906052409 17 119 0.0 0.0 0.00 0.00 0.00 99 955.8
20260906051906 17 69 0.0 0.0 0.00 0.00 0.00 99 955.6
20260906051406 17 69 0.0 0.0 0.00 0.00 0.00 99 955.6
20260906050902 17 85 0.0 0.0 0.00 0.00 0.00 99 955.7
20260906050356 17 119 0.0 0.0 0.00 0.00 0.00 99 955.7
20260906045856 17 121 0.0 0.0 0.00 0.00 0.00 99 955.7
20260906045355 17 121 0.0 0.0 0.00 0.00 0.00 99 955.9
20260906044852 17 121 0.0 0.0 0.00 0.00 0.00 99 955.7
20260906044351 17 61 0.0 0.0 0.00 0.00 0.00 99 955.8
20260906043847 17 61 0.0 0.0 0.00 0.00 0.00 99 955.5
20260906043344 17 61 0.0 0.0 0.00 0.00 0.00 99 955.6
20260906042844 18 121 0.0 0.0 0.00 0.00 0.00 99 955.7
20260906042342 18 120 0.0 0.0 0.00 0.00 0.00 99 955.5
20260906041838 18 112 0.0 0.0 0.00 0.00 0.00 99 955.6
20260906041334 18 157 0.0 0.0 0.00 0.00 0.00 99 955.6
20260906040834 18 156 0.0 0.0 0.00 0.00 0.00 99 955.8
20260906040329 18 184 0.0 0.0 0.00 0.00 0.00 99 955.9
20260906035824 17 184 0.0 0.0 0.00 0.18 0.18 99 956.0
20260906035319 18 184 0.0 0.0 0.00 0.18 0.18 99 956.1
20260906034815 18 185 0.0 0.0 0.00 0.18 0.18 99 956.0
20260906034315 18 83 0.0 0.0 0.00 0.18 0.18 99 956.1
20260906033811 18 83 0.0 0.0 0.00 0.18 0.18 99 956.4
20260906033309 18 83 0.0 0.0 0.00 0.18 0.18 99 956.2
20260906032806 18 83 0.0 0.0 0.00 0.18 0.18 99 956.5
20260906032305 18 82 0.0 0.0 0.00 0.18 0.18 99 956.7
20260906031757 18 82 0.0 0.0 0.00 0.18 0.18 99 956.6
20260906031253 18 82 0.0 0.0 0.00 0.18 0.18 99 956.6
20260906030752 18 82 0.0 0.0 0.00 0.18 0.18 99 956.6
20260906030248 18 125 0.0 0.0 0.00 0.18 0.18 99 956.6
20260906025747 18 126 0.0 0.0 0.00 0.18 0.18 99 956.5
20260906025241 18 125 0.0 0.0 0.00 0.18 0.18 99 956.4
20260906024740 18 125 0.0 0.0 0.00 0.18 0.18 99 956.4
20260906024239 18 125 0.0 0.0 0.00 0.18 0.18 99 956.5
20260906023735 18 125 0.0 0.0 0.00 0.18 0.18 99 956.0
20260906023230 18 125 0.0 0.0 0.00 0.18 0.18 99 956.4
20260906022726 18 125 0.0 0.0 0.00 0.18 0.18 99 956.4
20260906022221 18 125 0.0 0.0 0.00 0.18 0.18 99 956.2
20260906021717 18 126 0.0 0.0 0.00 0.18 0.18 99 956.1
20260906021215 18 126 0.0 0.0 0.00 0.18 0.18 99 956.2
20260906020711 18 126 0.0 0.0 0.00 0.18 0.18 99 956.0
20260906020206 18 125 0.0 0.0 0.00 0.18 0.18 99 956.1
20260906015706 18 125 0.0 0.0 0.00 0.18 0.18 99 956.2
20260906015204 18 125 0.0 0.0 0.00 0.18 0.18 99 956.2
20260906014658 18 125 0.0 0.0 0.00 0.18 0.18 99 956.1
20260906014154 18 125 0.0 0.0 0.00 0.18 0.18 99 956.1
20260906013650 18 126 0.0 0.0 0.00 0.18 0.18 99 956.1
20260906013145 19 126 0.0 0.0 0.00 0.18 0.18 99 955.9
20260906012645 19 126 0.0 0.0 0.00 0.18 0.18 99 955.7
20260906012139 19 126 0.0 0.0 0.00 0.18 0.18 99 955.7
20260906011635 19 126 0.0 0.0 0.00 0.18 0.18 99 955.5
20260906011130 19 126 0.0 0.0 0.00 0.18 0.18 99 955.5
20260906010625 19 126 0.0 0.0 0.00 0.18 0.18 99 955.5
20260906010122 20 126 0.0 0.0 0.00 0.18 0.18 99 955.4
20260906005621 20 252 0.0 0.0 0.00 0.18 0.18 98 955.5
20260906005120 20 252 0.0 0.0 0.00 0.18 0.18 98 955.3
20260906004619 20 252 0.0 0.0 0.00 0.18 0.18 98 955.4
20260906004114 20 252 0.0 0.0 0.00 0.18 0.18 98 955.4
20260906003610 20 252 0.0 0.0 0.00 0.18 0.18 98 955.3
20260906003106 20 252 0.0 0.0 0.00 0.18 0.18 97 955.5
20260906002600 20 252 0.0 0.0 0.00 0.18 0.18 96 955.3
20260906002055 20 252 0.0 0.0 0.00 0.18 0.18 96 955.5
20260906001551 20 252 0.0 0.0 0.00 0.18 0.18 95 955.4
20260906001051 21 252 0.0 0.0 0.00 0.18 0.18 94 955.4
20260906000547 21 252 0.0 0.0 0.00 0.18 0.18 93 955.5
20260906000042 21 253 0.0 0.0 0.00 0.18 0.18 93 955.4
20260905235541 21 253 0.0 0.0 0.00 0.18 0.18 92 955.3
20260905235036 21 253 0.0 0.0 0.00 0.18 0.18 91 955.2
20260905234532 22 253 0.0 0.0 0.00 0.18 0.18 89 955.3
20260905234026 22 253 0.0 0.0 0.00 0.18 0.18 88 955.4
20260905233521 22 253 0.0 0.0 0.00 0.18 0.18 88 955.4
20260905233021 22 253 0.0 0.0 0.00 0.18 0.18 88 955.4
20260905232516 22 253 0.0 0.0 0.00 0.18 0.18 87 955.6
20260905232012 23 253 0.0 0.0 0.00 0.18 0.18 85 955.6
20260905231507 23 253 0.0 0.0 0.00 0.18 0.18 83 955.6
20260905231003 23 248 0.0 1.6 0.00 0.18 0.18 82 955.4
20260905230502 23 256 0.0 1.6 0.00 0.18 0.18 81 955.7
20260905230000 23 257 1.6 1.6 0.00 0.18 0.18 80 955.6
20260905225455 24 336 0.0 1.6 0.00 0.18 0.18 79 955.6
20260905224951 25 301 0.0 1.6 0.00 0.18 0.18 77 955.6
20260905224446 25 134 1.6 3.2 0.00 0.18 0.18 77 955.5
20260905223945 25 57 1.6 3.2 0.00 0.18 0.18 78 955.7
20260905223443 25 276 6.4 11.3 0.00 0.18 0.18 74 955.5
20260905222938 26 319 0.0 1.6 0.00 0.18 0.18 74 955.5
20260905222437 26 310 0.0 0.0 0.00 0.18 0.18 73 955.4
20260905221933 26 220 0.0 4.8 0.00 0.18 0.18 73 955.5
20260905221429 26 2 0.0 3.2 0.00 0.18 0.18 72 955.4
20260905220926 25 37 3.2 4.8 0.00 0.18 0.18 73 955.0
20260905220421 25 17 6.4 6.4 0.00 0.18 0.18 72 955.1
20260905215920 25 31 8.0 9.7 0.00 0.18 0.18 72 955.1
20260905215416 26 142 0.0 6.4 0.00 0.18 0.18 71 955.2
20260905214912 26 263 0.0 3.2 0.00 0.18 0.18 71 954.8
20260905214408 26 201 6.4 9.7 0.00 0.18 0.18 70 954.9
20260905213908 26 57 1.6 3.2 0.00 0.18 0.18 68 954.7
20260905213404 27 234 1.6 1.6 0.00 0.18 0.18 69 955.0
20260905212859 26 334 1.6 3.2 0.00 0.18 0.18 70 954.8
20260905212354 26 334 1.6 3.2 0.00 0.18 0.18 70 954.9
20260905211853 26 331 1.6 3.2 0.00 0.18 0.18 70 955.0
20260905211349 26 212 0.0 6.4 0.00 0.18 0.18 69 955.0
20260905210845 26 340 0.0 4.8 0.00 0.18 0.18 68 954.7
20260905210345 26 336 0.0 9.7 0.00 0.18 0.18 71 954.4
20260905205839 27 346 3.2 6.4 0.00 0.18 0.18 69 954.7
20260905205339 28 351 0.0 0.0 0.00 0.18 0.18 70 954.5
20260905204838 27 247 0.0 3.2 0.00 0.18 0.18 69 954.7
20260905204335 27 308 1.6 4.8 0.00 0.18 0.18 70 954.8
20260905203833 27 29 4.8 6.4 0.00 0.18 0.18 69 954.8
20260905203329 27 250 4.8 6.4 0.00 0.18 0.18 69 954.6
20260905202824 27 232 1.6 4.8 0.00 0.18 0.18 70 954.7
20260905202314 27 204 1.6 4.8 0.00 0.18 0.18 69 954.5
20260905201809 27 334 0.0 3.2 0.00 0.18 0.18 69 954.6
20260905201304 27 238 4.8 4.8 0.00 0.18 0.18 69 954.5
20260905200759 27 254 1.6 3.2 0.00 0.18 0.18 71 954.7
20260905200255 27 11 3.2 6.4 0.00 0.18 0.18 68 954.8
20260905195752 27 196 0.0 3.2 0.00 0.18 0.18 71 954.7
20260905195247 27 252 0.0 4.8 0.00 0.18 0.18 71 954.9
20260905194743 27 249 3.2 4.8 0.00 0.18 0.18 69 954.7
20260905194242 27 203 0.0 3.2 0.00 0.18 0.18 67 955.0
20260905193742 27 44 1.6 4.8 0.00 0.18 0.18 68 955.1
20260905193237 27 278 3.2 6.4 0.00 0.18 0.18 72 955.2
20260905192733 27 340 0.0 3.2 0.00 0.18 0.18 72 955.2
20260905192230 27 268 0.0 4.8 0.00 0.18 0.18 70 955.4
20260905191728 26 224 3.2 4.8 0.00 0.18 0.18 70 955.4
20260905191226 26 229 3.2 4.8 0.00 0.18 0.18 70 955.4
20260905190725 27 6 3.2 4.8 0.00 0.18 0.18 70 955.4
20260905190224 26 198 1.6 4.8 0.00 0.18 0.18 70 955.7
20260905185723 26 342 3.2 4.8 0.00 0.18 0.18 70 955.7
20260905185218 26 338 3.2 4.8 0.00 0.18 0.18 71 955.8
20260905184713 26 322 3.2 3.2 0.00 0.18 0.18 71 955.9
20260905184212 26 246 3.2 11.3 0.00 0.18 0.18 72 955.8
20260905183711 26 318 0.0 4.8 0.00 0.18 0.18 75 955.9
20260905183207 25 61 0.0 0.0 0.00 0.18 0.18 79 956.0
20260905182706 25 358 0.0 1.6 0.00 0.18 0.18 76 956.0
20260905182206 26 227 0.0 0.0 0.00 0.18 0.18 72 955.9
20260905181702 26 345 3.2 4.8 0.00 0.18 0.18 75 956.0
20260905181200 25 102 3.2 4.8 0.00 0.18 0.18 74 956.2
20260905180655 25 245 0.0 3.2 0.00 0.18 0.18 80 956.2
20260905180151 25 242 0.0 3.2 0.00 0.18 0.18 80 956.4
20260905175649 26 296 3.2 4.8 0.00 0.18 0.18 79 956.2
20260905175145 25 239 1.6 4.8 0.00 0.18 0.18 81 956.6
20260905174641 25 237 3.2 3.2 0.00 0.18 0.18 84 956.4
20260905174136 25 259 1.6 3.2 0.00 0.18 0.18 85 956.5
20260905173632 25 234 6.4 9.7 0.00 0.18 0.18 81 956.7
20260905173128 24 252 1.6 4.8 0.00 0.18 0.18 81 956.9
20260905172626 23 149 0.0 4.8 0.00 0.18 0.18 84 956.8
20260905172121 23 235 0.0 3.2 0.00 0.18 0.18 87 957.1
20260905171618 23 250 0.0 0.0 0.00 0.18 0.18 87 957.0
20260905171113 23 235 0.0 0.0 0.00 0.18 0.18 89 957.1
20260905170604 22 228 0.0 0.0 0.00 0.18 0.18 90 957.0
20260905170059 22 212 0.0 0.0 0.00 0.18 0.18 89 956.9
20260905165559 22 243 3.2 3.2 0.00 0.18 0.18 89 957.1
20260905165054 22 213 3.2 3.2 0.00 0.18 0.18 92 957.0
20260905164550 22 168 0.0 4.8 0.00 0.18 0.18 88 956.9
20260905164049 22 267 0.0 0.0 0.00 0.18 0.18 89 957.1
20260905163546 22 212 0.0 1.6 0.00 0.18 0.18 92 957.1
20260905163042 22 293 0.0 4.8 0.00 0.18 0.18 92 956.8
20260905162538 21 214 1.6 3.2 0.00 0.18 0.18 93 956.8
20260905162032 21 251 0.0 0.0 0.00 0.18 0.18 95 956.9
20260905161531 20 174 1.6 6.4 0.00 0.18 0.18 95 956.4
20260905161029 21 182 1.6 4.8 0.00 0.18 0.18 96 956.4
20260905160528 20 159 1.6 4.8 0.00 0.18 0.18 96 956.5
20260905160023 20 162 3.2 3.2 0.00 0.18 0.18 97 956.7
20260905155523 20 208 0.0 3.2 0.00 0.18 0.18 97 956.9
20260905155021 20 189 3.2 3.2 0.00 0.18 0.18 97 956.9
20260905154517 20 207 3.2 4.8 0.00 0.18 0.18 96 957.0
20260905154012 21 192 1.6 9.7 0.00 0.18 0.18 96 956.8
20260905153508 21 166 1.6 3.2 0.00 0.18 0.18 95 957.2
20260905153008 21 232 0.0 0.0 0.00 0.18 0.18 95 957.4
20260905152508 20 175 0.0 0.0 0.00 0.18 0.18 97 958.0
20260905152003 20 175 0.0 0.0 0.00 0.18 0.18 97 957.9
20260905151458 20 208 0.0 0.0 0.00 0.18 0.18 96 958.0
20260905150953 20 178 0.0 0.0 0.00 0.18 0.18 98 958.1
20260905150448 20 178 0.0 0.0 0.00 0.18 0.18 97 958.3
20260905145944 20 231 0.0 0.0 0.00 0.18 0.18 99 958.4
20260905145439 20 232 0.0 0.0 0.00 0.18 0.18 99 958.3
20260905144939 19 232 0.0 0.0 0.00 0.18 0.18 99 958.4
20260905144434 19 222 0.0 0.0 0.00 0.18 0.18 99 958.2
20260905143932 19 222 0.0 0.0 0.00 0.18 0.18 99 957.9
20260905143426 19 223 0.0 0.0 0.00 0.18 0.18 99 958.1
20260905142921 19 200 0.0 0.0 0.00 0.18 0.18 99 957.8
20260905142420 18 124 0.0 0.0 0.00 0.18 0.18 99 957.8
20260905141916 18 124 0.0 0.0 0.00 0.18 0.18 99 957.9
20260905141411 18 124 0.0 0.0 0.18 0.18 0.18 99 957.9
20260905140907 18 124 0.0 4.8 0.18 0.18 0.18 99 958.1
20260905140402 18 188 0.0 3.2 0.00 0.15 0.15 99 958.3
20260905135900 18 168 0.0 0.0 0.00 0.15 0.15 99 958.3
20260905135356 18 232 3.2 4.8 0.00 0.15 0.15 99 958.3
20260905134851 18 356 0.0 1.6 0.00 0.15 0.15 99 958.5
20260905134350 18 112 3.2 3.2 0.30 0.15 0.15 99 958.1
20260905133844 18 95 4.8 9.7 0.89 0.15 0.15 99 958.1
20260905133339 18 347 4.8 12.9 0.30 0.05 0.05 99 958.6
20260905132838 18 325 0.0 11.3 0.00 0.00 0.00 99 958.2
20260905132334 19 306 3.2 12.9 0.00 0.00 0.00 99 957.8
20260905131828 19 256 0.0 0.0 0.00 0.00 0.00 99 957.5
20260905131324 19 235 0.0 0.0 0.00 0.00 0.00 99 956.7
20260905130819 19 234 0.0 0.0 0.00 0.00 0.00 99 956.9
20260905130317 19 235 0.0 0.0 0.00 0.00 0.00 99 956.8
20260905125813 19 235 0.0 0.0 0.00 0.00 0.00 99 956.8
20260905125308 19 235 0.0 0.0 0.00 0.00 0.00 99 957.0
20260905124804 19 235 0.0 0.0 0.00 0.00 0.00 99 956.8
20260905124300 18 235 0.0 0.0 0.00 0.00 0.00 99 956.6
20260905123755 18 235 0.0 0.0 0.00 0.00 0.00 99 956.7
20260905123253 18 235 0.0 0.0 0.00 0.00 0.00 99 956.7
20260905122752 18 235 0.0 0.0 0.00 0.00 0.00 99 956.9
20260905122251 18 235 0.0 0.0 0.00 0.00 0.00 99 957.0
20260905121746 18 234 0.0 0.0 0.00 0.00 0.00 99 957.0
20260905121243 18 235 0.0 0.0 0.00 0.00 0.00 99 956.8
20260905120741 17 235 0.0 0.0 0.00 0.00 0.00 99 956.7
20260905120236 17 235 0.0 0.0 0.00 0.00 0.00 99 956.7
20260905115732 17 235 0.0 0.0 0.00 0.00 0.00 99 956.8
20260905115231 17 235 0.0 0.0 0.00 0.00 0.00 99 956.8
20260905114726 17 235 0.0 0.0 0.00 0.00 0.00 99 957.0